User: anonymous   Login
Location: Breungeshain
(50.5000°N, 9.2000°E)
Time: 03:08:18
(UTC+00:00)
Language:

ISS - Orbit

View from above orbital plane
View from above orbital plane
View from above satellite
View from above satellite

Ground track
Ground track

The orbit data is extracted from the following two-line orbital elements,

1 25544U 98067A   17143.53437414  .00016717  00000-0  10270-3 0  9015
2 25544  51.6381 161.2014 0005157 184.8795 175.2308 15.53915403 17911
Epoch (UTC): 23 May 2017 12:49:29
Eccentricity: 0.0005157
inclination: 51.6381°
perigee height: 402 km
apogee height: 409 km
right ascension of ascending node: 161.2014°
argument of perigee: 184.8795°
revolutions per day: 15.53915403
mean anomaly at epoch: 175.2308°
orbit number at epoch: 1791

The dashed part of the orbit path shows where the satellite is in the earth's shadow,  

DLR